Delray Beach, FL

2:25 AM EST on December 25, 2014 (GMT -0500)
Pompano Beach | Change Station
CLOSE
Current Station
Airport
Location: Pompano Beach,
Elevation: 20 ft
Nearby Weather Stations

Elev 20 ft 26.25 °N, 80.11 °W | Updated 32 minutes ago

Partly Cloudy
Partly Cloudy
78 °F
Feels Like 78 °F
N
9
Wind Variable Wind from SSW

Today
High -- | Low -- °F
--% Chance of Precip.
Yesterday
High -- | Low -- °F
Precip. -- in
7:05 AM 5:35 PM
Waxing Crescent, 14% visible
Pressure 29.97 in
Visibility 9.0 miles
Clouds Few 4100 ft
Scattered Clouds 9000 ft
Dew Point 73 °F
Humidity 84%
Rainfall 0.00 in
Snow Depth Not available.
UV 0 out of 12
Pollen 3.90 out of 12
Air Quality Not available.
Flu Activity Not available.
METAR KPMP 250653Z AUTO 20008KT 9SM -RA FEW041 SCT090 26/23 A2996 RMK AO2 LTG DSNT W AND NW RAB31 SLP147 P0000 T02560228

More Conditions Fewer Conditions

Pressure 29.97 in
Visibility 9.0 miles
Clouds Few 4100 ft
Scattered Clouds 9000 ft
Dew Point 73 °F
Humidity 84%
Rainfall 0.00 in
Snow Depth Not available.
UV 0 out of 12
Pollen 3.90 out of 12
Air Quality Not available.
Flu Activity Not available.
METAR KPMP 250653Z AUTO 20008KT 9SM -RA FEW041 SCT090 26/23 A2996 RMK AO2 LTG DSNT W AND NW RAB31 SLP147 P0000 T02560228

More Conditions Fewer Conditions

Nowcast | as of 1:40 am EST on December 25, 2014

A line of showers and embedded thunderstorms over the interior areas of South Florida will continue to move east northeast around 25 mph into the Metro areas of Palm Beach and Broward counties through early this morning. Any storms that do move through the area will be capable of producing wind gusts up to 35 mph...lightning strikes...and locally heavy rainfall. If you see lightning or hear thunder move inside until the storms have passed by.

×

10-Day Weather Forecast

Almanac

Astronomy

Dec. 25, 2014 Rise Set
Actual Time
Civil Twilight
Nautical Twilight
Astronomical Twilight
Moon
Length of Visible Light
Length of Day
Tomorrow will be .
, % of the Moon is Illuminated

Today's Extremes

State Highs State Lows

Community

WunderPhotos

Upload Photos

1,780,250 photos uploaded!

WunderBlogs® & News

Nearby

Air Quality

  Air Quality AQ Index Pollutant
Not available.

Snow Depth

Station Depth Elevation

Earthquake Activity

City Distance Mag. Time & Date
Minimum magnitude displayed is 2.5.

Coastal Water Temperatures

Place Temperature

Nearby Weather Stations